Wind_Speed
18 24 26 26 26 25 24 23 24 24 24 24 25 24 23 23 22 22 22 22 21 21 21 20 19 19 18 19 18 18 19 17 14 14 14 14 13 12 12 12 12 12 12 12 12 12 12 11 9 7 7 7 4 2 3 4 4 4 5 5 5 4 4 4 3 3 5 4 4 5 4 4 3 2 1 1 1 2 4 5 6 7 7 6 6
18 21 24 27 26 26 26 23 24 26 25 25 26 25 24 24 23 23 22 23 23 22 21 20 20 19 18 18 17 17 18 15 14 13 13 13 12 12 13 12 12 12 12 12 13 13 12 12 10 7 7 6 3 1 2 2 4 6 5 5 4 3 4 4 2 3 4 2 3 5 4 4 4 2 2 1 2 3 4 5 7 8 9 8 6
17 19 22 26 27 27 26 24 25 26 26 26 25 25 25 25 24 23 22 22 23 22 21 21 20 20 18 16 15 14 14 14 13 12 12 12 12 13 13 12 12 12 11 12 12 11 9 10 9 6 6 4 2 1 2 2 4 4 4 4 4 4 5 3 1 3 4 3 2 3 4 3 3 2 1 2 3 3 5 5 5 6 8 9 7
18 19 21 24 27 28 27 26 26 26 26 27 26 27 26 26 25 24 23 22 22 22 21 21 19 19 18 15 13 12 11 10 10 10 10 10 11 12 11 12 13 12 10 11 11 8 6 6 4 4 4 3 1 1 2 3 3 4 4 3 3 5 4 2 2 2 3 4 2 2 3 3 1 2 2 2 2 2 6 6 3 4 8 8 7
19 20 20 22 24 28 28 27 27 27 27 27 28 28 26 26 26 25 24 22 21 22 22 20 19 18 16 15 13 11 10 9 10 10 10 9 11 11 10 11 13 12 10 10 9 6 5 5 5 4 2 1 1 2 2 2 3 3 3 2 3 5 6 2 0 1 1 2 3 3 2 2 1 1 1 1 0 2 6 5 3 4 6 5 4
19 20 20 21 24 27 29 28 27 27 27 27 28 27 26 25 26 25 24 23 22 22 22 21 19 18 17 15 14 13 12 11 11 11 10 10 10 10 9 9 9 10 10 9 7 6 6 6 5 2 0 0 1 2 2 2 2 2 2 2 3 3 4 5 3 1 1 0 2 1 0 1 1 2 2 1 1 1 3 4 4 5 4 4 4
19 20 21 22 24 26 28 30 30 28 27 27 26 27 27 25 26 26 24 23 22 22 22 22 20 19 18 16 15 14 12 11 11 11 10 9 8 8 8 8 8 9 8 7 6 6 6 6 4 1 0 1 1 1 1 1 1 2 2 2 2 2 2 4 5 2 2 1 2 0 1 1 2 1 2 1 1 1 1 1 4 6 3 2 1
19 20 22 22 23 26 28 30 30 28 27 27 26 27 27 26 26 26 25 23 23 23 23 22 21 19 19 17 16 15 13 11 10 10 9 8 7 7 7 6 7 7 6 6 6 6 5 5 3 1 1 2 1 1 2 1 1 1 1 1 1 2 2 3 4 4 2 1 1 1 1 1 0 1 2 2 2 1 1 2 1 2 2 1 2
20 20 22 22 23 28 30 31 30 29 28 27 27 26 26 27 26 26 26 24 23 23 23 22 21 20 19 19 18 16 14 12 10 10 10 9 8 8 7 6 7 6 5 6 6 5 5 4 3 0 2 2 2 2 2 1 2 1 1 1 1 1 1 3 3 4 5 1 3 1 1 1 1 1 1 1 2 2 2 1 2 3 2 1 2
20 21 21 22 25 29 30 31 31 30 29 28 28 26 26 26 26 26 26 25 24 24 24 23 22 21 20 20 19 17 14 12 11 11 10 10 9 8 7 6 6 6 6 6 6 5 5 3 3 2 2 2 2 3 2 1 1 2 2 1 1 2 1 3 3 3 4 2 1 1 1 1 1 1 1 1 1 1 3 3 5 5 3 2 3
20 21 21 22 26 29 30 30 31 30 29 28 28 27 27 26 26 27 27 25 25 25 25 24 23 22 21 20 19 18 15 13 12 12 10 9 9 8 8 7 6 5 5 6 6 5 5 3 3 3 2 2 2 3 3 3 3 3 2 2 2 2 2 2 3 3 2 2 2 2 2 3 1 1 3 3 2 3 3 4 6 6 6 5 6
19 18 19 21 23 25 28 30 31 31 30 30 30 29 27 27 27 28 28 27 26 25 25 25 24 23 21 20 20 18 16 14 14 13 11 10 9 9 8 7 6 5 5 6 6 7 6 4 3 3 3 3 4 4 4 3 3 2 2 2 3 3 3 2 2 3 3 3 4 3 3 4 1 1 3 3 2 3 4 4 6 6 5 6 8
17 17 17 19 20 21 24 28 30 31 32 32 31 30 28 28 28 29 29 28 26 25 26 26 25 24 23 21 20 18 17 16 15 13 13 12 11 10 9 8 7 7 6 6 6 8 7 4 4 4 4 5 5 5 4 3 3 2 2 3 3 3 3 3 3 3 3 3 4 4 4 5 3 2 4 4 3 2 3 5 6 7 6 7 9
17 17 18 19 20 20 23 28 30 31 33 33 32 31 29 29 29 29 29 29 27 26 26 26 26 25 24 22 20 19 18 17 16 14 14 13 12 11 10 9 9 8 7 6 6 6 6 5 6 6 6 6 6 5 4 5 4 3 3 4 4 4 4 4 4 4 4 3 4 5 5 6 5 5 5 5 5 5 6 6 6 6 7 9 9
16 17 20 21 22 22 25 28 31 32 34 34 33 32 30 29 30 30 29 30 29 28 27 27 27 26 25 23 21 19 18 18 17 15 14 14 13 12 10 9 7 7 6 6 5 6 6 6 6 7 7 7 6 7 6 6 6 5 5 5 5 5 5 6 6 6 5 5 5 6 6 6 7 7 6 7 7 7 7 6 6 5 5 7 8
17 19 22 24 23 23 26 29 31 33 34 35 34 33 32 30 30 31 30 30 30 30 29 27 27 26 25 24 22 20 19 18 17 16 15 14 13 12 10 8 7 6 5 6 6 6 6 7 7 8 8 8 8 8 8 8 7 7 7 6 7 7 7 7 8 8 8 8 8 8 8 8 9 8 8 8 7 7 7 6 6 6 5 5 5
17 19 21 23 22 23 28 30 32 34 34 35 35 34 34 32 31 32 31 30 30 30 29 28 27 27 26 25 23 22 21 20 19 18 16 15 13 12 10 9 8 6 5 6 6 6 7 7 8 8 9 9 9 9 9 9 8 9 9 9 8 8 8 8 9 9 9 9 9 9 9 9 9 9 9 9 8 7 7 7 7 7 7 5 4
18 20 20 21 22 23 27 31 33 35 35 35 36 35 34 33 32 32 32 31 30 30 29 28 27 27 26 26 24 23 23 21 20 19 18 16 14 13 11 10 9 7 7 6 6 6 6 7 8 9 9 10 10 10 10 10 10 10 11 10 10 9 9 9 9 9 10 10 10 9 9 9 9 9 9 9 8 7 8 8 8 8 8 7 7
15 18 19 20 22 23 27 31 33 35 34 34 35 35 34 34 32 32 32 32 30 29 28 27 27 26 26 26 26 25 24 23 21 20 18 17 16 15 13 11 10 9 9 8 7 7 8 9 9 10 10 11 11 11 11 12 12 12 12 11 11 11 11 11 10 10 10 11 11 10 10 10 10 10 10 9 9 8 9 9 8 9 9 9 9
14 16 19 21 23 26 30 33 34 34 34 33 35 35 34 34 33 32 31 31 31 30 28 27 27 26 26 26 27 26 24 23 22 20 19 18 17 16 14 12 12 12 12 12 11 11 13 13 13 13 13 13 14 14 14 13 14 14 13 12 12 12 11 11 11 11 11 11 11 11 11 11 11 11 11 9 9 9 10 10 9 9 10 9 9
13 15 19 22 23 25 31 33 32 33 33 34 35 35 34 33 33 33 32 31 31 31 28 27 27 27 27 27 27 26 25 23 22 21 20 19 19 19 17 15 16 16 15 16 17 19 21 19 18 17 17 17 17 17 16 14 14 14 14 13 12 12 11 11 11 11 12 12 11 12 12 13 12 12 11 10 10 11 11 11 10 10 11 10 9
15 15 18 21 21 22 27 30 30 31 33 34 34 34 34 34 33 34 33 31 31 30 29 27 27 27 27 27 27 27 26 24 23 23 23 22 22 23 23 22 22 21 21 23 25 26 26 24 23 22 21 19 18 18 16 14 14 14 14 14 13 13 12 12 12 12 13 13 12 13 14 13 12 12 11 11 11 12 12 10 9 9 11 10 9
16 15 18 19 19 20 22 26 29 30 31 33 33 33 34 35 33 33 34 33 30 29 28 27 27 26 27 27 27 27 27 26 26 27 26 25 26 30 31 30 28 26 28 31 30 29 28 26 26 26 24 20 18 18 17 15 14 15 15 14 14 13 13 13 13 13 13 13 14 15 14 13 12 11 12 12 13 13 11 10 10 11 12 12 11
15 17 18 17 17 17 18 20 23 25 29 32 32 33 33 34 33 33 33 33 31 29 28 28 27 26 26 27 28 28 29 30 30 30 30 30 34 39 39 36 34 33 36 36 33 31 30 29 29 28 25 22 20 18 16 16 16 17 17 16 15 14 14 14 14 14 14 14 14 15 14 13 12 12 13 13 13 12 11 10 12 13 12 11 11
12 16 17 17 17 15 14 15 18 23 28 30 31 32 32 33 33 33 32 32 32 31 30 30 29 28 28 29 30 31 32 34 33 32 32 34 40 44 41 39 39 39 40 39 35 33 32 31 31 29 27 26 23 20 17 16 17 18 17 16 15 15 15 15 14 15 15 14 14 14 14 13 12 13 14 14 13 13 11 11 12 12 10 11 13
10 13 14 15 13 12 13 13 17 24 28 28 30 32 32 31 33 33 31 30 31 31 31 31 30 30 30 31 32 32 34 35 33 33 35 36 41 44 43 42 44 44 42 39 35 35 34 33 33 31 29 27 23 19 18 17 17 18 17 15 15 15 16 15 15 15 15 15 14 15 15 14 12 13 14 15 15 14 12 11 12 11 11 12 14
10 11 12 13 12 12 14 13 17 25 29 29 31 32 31 30 31 32 30 29 30 31 32 31 29 30 32 32 33 34 35 35 34 36 37 37 41 46 46 47 48 46 43 39 36 36 36 35 34 32 31 29 25 20 19 18 18 19 18 16 15 16 16 16 15 15 14 15 15 16 16 15 13 14 15 16 16 15 13 13 14 14 14 14 13
10 12 13 14 13 13 15 15 18 25 29 30 31 32 32 31 31 32 30 30 31 32 33 32 30 31 33 33 33 34 34 35 36 37 38 41 46 49 49 49 48 47 44 41 39 40 38 36 34 32 31 29 26 22 19 18 19 20 19 17 16 17 17 16 16 15 15 15 16 16 16 15 13 13 14 14 15 14 13 15 16 16 17 16 15
12 13 14 14 13 14 15 16 18 22 27 29 30 30 30 30 31 32 31 31 32 32 32 31 30 32 32 32 32 31 31 34 37 39 41 47 52 52 50 50 49 48 46 43 42 41 39 36 33 29 27 25 22 20 19 19 20 20 20 18 18 18 17 16 17 16 16 16 17 16 14 14 14 15 16 16 15 13 13 13 15 17 19 18 18
14 13 13 13 14 15 15 16 17 19 24 27 28 29 30 31 31 31 31 30 29 29 30 31 32 32 31 31 31 30 31 33 37 44 47 49 52 52 51 51 50 49 47 44 42 39 34 33 31 26 24 22 20 19 19 20 21 21 20 18 18 19 18 18 17 17 17 17 17 16 14 13 15 17 18 19 18 17 17 16 16 18 21 21 20
13 11 11 13 14 15 16 17 18 21 25 27 27 28 30 30 30 31 31 30 28 28 28 29 30 29 28 30 32 31 30 33 41 48 49 48 50 52 52 52 51 49 46 42 40 36 28 24 25 23 22 21 20 19 20 21 23 24 22 19 18 19 19 19 18 17 17 17 16 14 12 13 16 18 17 17 18 18 17 17 17 19 21 22 22
9 8 10 13 15 16 18 20 21 24 27 28 27 28 29 29 29 30 30 30 29 28 28 26 25 25 28 31 31 29 29 35 44 50 50 49 50 50 50 47 42 41 41 37 36 36 28 20 19 19 20 20 19 20 22 23 24 26 26 22 19 18 18 19 19 18 17 17 16 15 12 12 15 17 16 15 16 16 16 17 17 18 20 22 23
8 9 11 14 16 16 19 20 21 24 29 29 29 29 29 29 28 28 28 29 28 28 28 28 28 29 31 31 30 30 30 35 42 46 46 46 46 47 43 33 24 25 27 26 28 29 23 18 16 17 18 19 19 21 24 25 25 26 26 24 21 18 18 19 19 18 18 18 17 16 15 13 13 13 13 12 12 13 15 16 16 16 18 21 24
7 8 11 13 15 15 17 20 22 25 28 29 29 28 28 28 28 27 27 27 27 27 28 29 30 31 31 30 31 32 32 32 34 35 35 34 36 38 34 23 15 15 15 15 17 17 16 16 16 15 17 17 18 20 24 25 24 24 24 26 24 20 19 18 16 16 19 18 17 16 14 14 12 12 12 10 10 11 13 14 14 16 18 20 23
10 11 13 14 15 16 17 20 24 26 27 27 27 27 28 28 27 26 26 26 27 28 28 28 29 29 29 29 29 30 29 28 27 27 27 26 26 26 24 19 16 14 12 12 13 13 13 14 14 14 15 16 17 20 22 22 22 22 24 26 24 19 19 19 18 19 19 16 14 13 11 10 10 10 11 11 11 12 13 13 14 17 19 20 22
11 12 13 14 16 18 18 21 24 26 27 27 28 28 28 27 27 26 27 27 28 29 28 28 27 27 27 26 27 27 26 24 23 23 24 25 23 20 19 18 17 15 13 12 12 12 13 13 14 15 16 16 17 20 21 22 21 21 23 25 22 19 18 17 17 17 16 13 13 13 12 13 14 14 15 15 13 13 13 12 14 17 19 21 22
12 12 13 14 17 19 20 22 25 27 27 27 27 27 27 27 27 26 27 27 27 27 28 27 27 27 26 24 25 24 23 22 22 22 23 23 22 20 19 18 17 16 14 12 12 13 13 14 15 17 18 18 18 21 22 22 21 21 23 24 22 18 16 15 13 13 15 16 17 16 14 14 15 16 18 18 14 13 13 14 16 18 18 19 20
11 12 13 14 17 19 21 24 25 26 27 27 27 28 28 27 27 27 27 27 27 27 29 29 28 27 26 26 25 24 23 23 22 22 22 21 20 20 20 19 16 16 14 12 12 12 12 13 15 16 18 18 18 19 21 20 20 21 22 23 20 16 16 16 13 14 17 19 16 14 12 13 14 16 18 16 13 13 14 15 15 16 17 19 19
12 13 14 16 18 20 22 24 24 24 25 25 26 27 27 26 27 27 27 26 27 27 27 27 25 24 25 27 26 23 23 23 21 21 20 19 18 19 19 17 15 14 14 13 13 12 12 13 14 14 16 17 17 17 18 19 20 22 23 21 18 15 14 14 13 14 17 16 13 11 12 14 15 16 16 14 13 13 14 14 14 16 18 17 15
12 14 15 17 18 19 20 22 25 25 25 26 26 25 25 25 26 27 26 25 25 24 23 23 23 24 26 27 24 22 22 21 20 19 17 16 16 16 16 15 14 14 14 14 14 13 12 13 13 12 13 15 15 15 16 17 19 22 24 21 17 15 15 14 14 13 12 11 11 10 10 11 12 14 15 14 13 13 14 14 13 15 17 16 14
11 13 15 17 17 18 19 20 23 25 26 27 26 24 23 24 25 25 24 24 24 23 23 23 23 23 25 24 23 22 21 19 18 18 17 17 18 17 17 17 15 14 15 14 14 13 13 13 12 12 12 13 13 14 16 19 19 20 21 22 18 16 16 14 11 9 8 9 10 11 10 11 12 13 14 13 12 13 15 15 13 14 17 17 16
11 13 16 16 16 18 19 19 21 24 25 26 26 24 22 22 22 23 23 24 25 24 23 23 22 22 22 22 23 22 20 19 19 18 18 19 19 17 17 16 14 13 13 12 12 12 12 12 11 11 11 10 10 12 15 17 18 18 21 24 21 15 12 10 7 7 10 11 10 12 14 14 13 12 12 12 12 14 15 14 14 16 17 16 16
12 14 17 18 16 17 19 21 22 24 25 25 24 22 20 19 20 21 23 24 24 23 23 22 21 20 20 21 22 21 19 20 20 20 20 20 19 17 15 13 13 12 11 11 10 11 11 12 11 11 11 10 10 11 13 15 18 19 21 23 23 18 13 10 8 8 10 10 9 11 15 15 13 11 11 11 12 13 14 14 14 13 13 13 13
14 16 18 19 18 18 20 23 23 23 24 24 23 20 18 18 19 21 23 24 24 23 23 22 21 21 21 20 19 19 18 18 19 20 20 18 17 15 13 13 13 13 11 12 11 11 12 12 12 12 12 11 10 11 14 18 19 18 18 20 22 19 14 10 9 8 9 11 11 12 13 13 12 10 11 11 11 11 11 11 11 11 12 12 11
15 17 20 21 20 19 20 20 20 20 21 21 21 19 18 18 19 21 22 23 22 23 23 23 23 23 23 22 22 21 19 19 19 19 17 16 15 14 13 14 14 12 12 12 12 12 12 11 11 12 12 12 12 12 14 17 17 16 17 18 18 15 12 11 11 10 10 11 13 14 13 12 10 10 10 10 8 8 7 8 10 12 12 11 10
16 18 20 22 21 20 20 19 19 19 19 18 19 20 20 20 20 21 23 23 22 21 20 21 22 22 23 25 25 23 20 19 19 18 15 14 15 14 13 14 13 12 12 12 12 13 13 12 12 12 11 12 13 13 13 15 16 16 17 16 14 12 12 14 14 12 11 12 12 13 13 11 9 9 8 7 6 7 8 9 10 10 9 9 10
16 17 19 20 19 17 17 17 17 16 17 17 18 19 19 20 22 23 25 26 25 23 19 19 21 22 22 23 23 22 20 18 18 18 17 16 15 14 13 12 12 13 13 13 13 13 13 12 12 12 11 10 11 12 13 14 15 16 15 15 14 12 15 17 15 12 12 11 10 11 10 8 8 7 7 7 9 11 11 9 8 8 9 9 9
17 18 18 18 17 16 16 16 15 14 14 14 15 15 17 19 21 24 25 25 24 23 22 21 21 21 20 19 19 20 19 19 19 19 19 17 16 14 14 13 12 13 13 13 13 12 12 12 12 11 11 10 10 11 12 13 14 14 14 14 14 14 17 17 14 12 12 10 10 10 9 7 7 7 9 10 11 13 13 10 8 9 10 10 12
16 18 17 17 16 16 16 15 15 14 14 14 14 15 17 18 19 21 23 23 22 23 23 22 21 20 19 18 18 18 18 19 19 15 13 14 14 12 12 12 11 10 9 9 10 10 9 10 10 10 10 10 10 11 12 13 13 13 13 15 15 15 17 16 13 13 13 11 10 9 8 8 9 9 10 11 13 14 14 11 9 8 8 11 12
16 17 17 17 16 15 16 16 15 14 15 15 15 16 17 17 18 18 19 21 22 22 21 21 20 19 19 18 18 18 18 20 18 13 11 13 13 10 10 11 10 9 8 7 7 6 5 4 2 4 8 10 9 11 13 14 14 13 13 15 16 16 16 14 12 13 10 8 8 8 8 8 9 9 11 11 11 10 9 9 10 10 11 11 12
15 15 15 15 15 15 15 15 14 14 14 15 15 16 16 16 16 15 17 19 20 19 19 19 18 19 20 19 19 19 19 19 18 16 13 13 12 11 11 11 10 9 9 8 8 7 6 4 6 7 8 8 7 9 12 13 14 16 16 17 17 16 13 11 10 9 7 7 8 9 9 8 8 10 11 11 11 10 10 10 11 12 12 12 12
Wind_Direction
189 190 191 190 190 190 190 190 191 193 195 194 196 197 198 200 201 202 203 205 208 206 206 207 209 213 216 220 222 219 223 227 228 232 236 235 236 236 230 228 230 231 233 235 239 247 256 258 256 248 231 229 220 207 306 320 342 337 321 320 311 305 308 287 270 282 284 291 294 282 245 204 180 173 202 69 60 78 77 63 53 43 36 41 46
189 188 190 191 190 190 189 190 191 193 194 195 197 197 198 200 201 203 201 203 207 207 207 208 210 212 215 219 221 217 220 226 229 232 235 235 236 235 231 231 231 232 236 242 246 251 258 254 242 233 226 218 191 184 296 320 331 322 316 311 295 289 299 293 294 267 268 292 315 308 281 201 177 214 221 122 68 77 85 69 59 49 32 27 32
191 186 188 191 191 190 189 191 193 193 194 195 197 197 198 200 201 203 202 203 206 207 208 210 212 215 218 221 221 223 224 225 230 232 233 232 231 229 229 227 226 227 230 239 247 248 249 247 238 229 218 202 178 231 279 305 312 304 292 296 296 286 268 259 278 267 284 329 325 301 289 216 167 209 239 88 58 67 83 68 53 51 38 24 22
194 188 187 190 191 191 191 193 194 193 194 195 196 197 198 200 200 201 202 204 206 206 208 211 213 215 219 221 221 228 229 223 223 227 228 225 224 225 224 227 230 226 224 236 243 238 235 236 218 197 202 208 232 256 288 299 285 265 271 285 287 289 278 212 160 237 290 332 311 278 293 292 160 157 144 87 52 101 110 90 70 73 53 26 15
196 191 187 189 191 192 193 194 194 194 195 195 195 196 198 199 199 199 201 204 206 206 207 210 212 213 216 219 222 224 221 215 213 219 223 220 224 227 224 233 239 231 226 234 233 214 199 195 180 176 202 236 255 266 280 280 271 259 272 275 256 283 306 320 150 208 275 326 312 307 309 319 355 1 49 111 82 160 140 111 75 84 80 57 30
197 193 189 190 193 193 193 194 195 196 196 196 196 197 198 199 198 198 200 203 205 205 205 206 208 210 212 213 216 216 215 216 218 223 225 224 228 223 216 223 226 219 218 217 205 186 176 172 169 165 132 213 231 264 270 266 285 283 278 278 256 271 302 304 291 245 141 255 295 296 263 333 14 330 331 113 302 337 125 118 91 75 88 126 109
198 195 191 192 194 194 193 194 197 198 196 195 196 196 197 198 199 199 199 202 204 205 204 204 205 209 212 212 213 215 219 221 219 221 221 219 219 202 193 198 196 200 206 196 180 171 166 164 168 159 125 249 222 251 293 311 332 327 301 295 291 283 282 285 286 272 156 185 272 225 119 30 30 351 356 47 300 12 47 176 128 92 62 147 112
200 195 194 194 195 195 194 194 197 199 197 195 196 197 196 197 200 200 200 201 203 204 203 203 205 208 211 212 214 216 222 222 213 214 213 203 198 189 183 179 180 191 197 183 166 160 162 166 166 153 293 277 247 260 275 316 11 355 317 319 300 286 281 279 295 310 305 149 167 238 98 89 166 86 36 352 302 277 235 240 176 62 353 321 315
205 197 197 197 195 196 196 194 196 198 198 197 197 197 196 197 199 199 201 202 201 202 202 202 205 208 210 210 212 216 220 221 214 212 207 193 190 191 184 176 175 177 177 166 158 164 170 167 161 151 308 278 257 269 264 29 19 338 256 214 210 253 291 286 291 308 312 31 107 179 166 203 243 126 105 281 314 313 264 251 286 281 280 245 263
211 199 197 198 196 196 196 195 196 197 198 198 197 197 196 197 198 199 201 201 200 200 200 202 203 205 209 209 209 213 215 216 217 211 200 188 188 187 179 177 176 170 165 158 157 167 166 170 198 246 297 273 266 289 298 338 318 254 238 232 229 248 268 274 280 294 309 352 85 187 222 251 281 284 245 231 137 229 257 284 289 286 298 292 279
216 202 194 196 198 195 195 196 196 197 198 197 197 197 197 196 198 199 199 199 199 200 200 200 200 201 205 206 207 210 209 206 210 208 195 185 188 188 180 178 177 175 173 164 163 170 166 184 234 253 264 243 239 268 267 266 247 218 210 214 212 227 236 250 272 281 291 295 247 215 247 265 281 314 313 336 325 267 278 295 299 311 318 307 303
213 208 195 192 196 194 194 195 194 195 196 198 197 197 197 196 197 198 198 198 198 199 199 199 199 200 201 202 204 206 205 203 203 202 195 191 192 189 180 176 176 180 179 169 173 178 173 188 234 239 228 221 221 231 235 249 261 221 185 202 202 204 227 234 249 261 260 269 264 240 254 277 287 281 289 294 294 315 330 309 297 307 307 298 303
204 209 204 192 192 193 193 193 192 193 195 197 197 196 197 196 196 197 197 197 196 196 198 198 199 199 198 199 200 200 202 203 202 199 195 193 193 189 181 178 179 181 179 179 185 185 179 188 211 217 222 224 228 230 218 215 235 226 190 208 213 199 218 228 238 259 255 262 278 273 267 278 276 255 264 273 278 281 267 269 289 304 304 296 294
195 201 207 198 192 191 192 191 190 193 195 195 197 196 196 195 195 196 196 196 196 195 196 197 198 198 197 197 197 196 198 201 201 199 196 192 190 190 187 181 182 185 182 183 189 193 198 205 208 216 224 221 221 220 211 203 210 218 211 218 226 221 224 231 238 254 260 261 275 283 282 282 285 277 262 263 268 264 260 272 296 300 294 293 292
192 196 207 202 194 189 190 190 190 192 193 194 196 196 195 195 195 195 195 195 195 195 196 196 196 196 195 195 194 194 195 199 200 200 199 196 191 189 189 183 179 182 180 178 183 194 205 212 215 219 217 213 210 209 208 204 206 215 222 227 232 233 232 237 244 248 254 260 263 274 281 278 282 281 271 267 267 272 280 288 291 289 289 295 300
192 196 206 202 194 189 189 190 190 191 192 193 194 194 194 195 194 195 195 195 195 196 196 196 195 195 194 194 193 193 193 196 199 199 198 198 192 185 184 182 176 173 169 171 180 191 200 209 214 214 209 207 207 207 211 213 210 211 217 225 232 237 237 239 246 249 251 256 257 259 262 266 274 277 276 276 271 271 276 276 275 276 286 294 296
195 198 205 200 194 191 189 189 190 190 192 193 192 192 193 193 193 195 195 196 196 196 197 196 196 196 194 193 192 191 192 195 196 196 195 194 189 181 181 181 178 172 163 167 178 188 199 207 211 209 206 209 211 210 214 218 217 215 216 223 229 237 243 241 244 251 254 257 259 257 253 255 262 264 265 267 266 269 270 271 275 274 277 285 290
201 199 203 200 194 193 191 190 191 190 191 192 190 190 192 194 194 195 195 197 197 196 197 197 196 196 195 194 193 192 193 195 196 194 191 188 184 179 182 181 173 165 159 163 172 180 192 203 209 212 210 213 217 215 215 218 221 222 223 226 228 233 243 245 244 250 254 257 260 261 259 256 253 252 256 261 261 263 263 265 272 273 275 280 286
205 200 201 199 194 195 193 192 192 191 190 190 189 189 192 195 196 196 197 198 198 198 198 197 196 197 197 195 194 193 193 194 195 193 188 186 184 179 182 180 166 161 160 157 162 178 194 202 207 214 218 218 219 216 217 219 221 225 227 229 228 229 237 243 246 248 250 251 251 253 257 258 258 256 256 261 263 264 265 265 266 266 269 270 276
211 204 200 199 196 195 194 192 191 189 189 189 189 191 193 194 196 197 197 197 198 199 198 197 197 197 197 196 195 194 193 193 193 190 187 187 184 178 180 175 161 159 164 163 170 185 194 199 203 209 216 218 215 212 214 217 221 227 230 231 231 231 234 238 242 246 251 255 253 252 253 254 256 257 257 261 265 265 265 265 264 268 273 274 275
216 215 204 198 196 197 193 192 190 186 187 189 191 193 194 195 196 197 197 197 198 199 198 197 197 197 196 196 196 194 193 192 190 188 188 186 182 179 177 172 165 166 176 184 190 193 194 195 199 204 210 214 212 209 210 213 219 227 232 235 237 239 242 241 240 241 247 254 252 248 249 251 253 259 261 261 262 262 260 257 257 266 274 277 278
206 217 215 200 193 196 193 190 190 187 188 190 191 192 194 195 196 196 198 199 198 199 199 197 197 197 196 196 196 194 192 190 186 186 187 182 180 179 175 176 179 184 193 201 202 198 195 195 199 201 205 209 209 208 209 211 216 224 229 233 237 239 240 240 240 239 239 243 247 246 248 249 250 256 259 259 258 257 259 262 265 268 273 277 278
193 206 223 209 192 194 189 185 190 190 189 191 191 192 194 196 197 196 199 199 197 197 199 198 197 197 196 194 194 193 191 189 186 185 183 177 175 178 180 187 194 200 206 209 207 202 196 197 201 201 201 204 207 208 209 210 214 222 226 228 232 235 235 235 235 237 236 236 240 243 246 246 248 250 250 249 248 250 259 271 274 273 277 283 285
186 198 220 212 193 192 186 182 187 189 188 190 192 193 193 195 197 198 199 199 196 194 196 198 198 198 197 195 194 192 190 190 188 185 181 176 176 181 187 195 200 208 213 211 208 205 200 199 202 200 196 198 202 206 209 211 216 222 224 226 229 231 234 235 234 236 237 236 237 243 246 246 246 249 250 246 241 244 254 260 265 270 273 279 287
190 199 213 208 193 189 187 183 183 185 187 189 191 193 193 194 197 198 198 198 195 193 194 196 196 198 199 197 195 192 189 189 190 188 183 179 180 185 191 196 202 210 214 210 206 206 203 201 202 200 196 197 200 202 205 213 222 224 222 224 229 232 233 235 236 238 239 239 240 245 250 249 248 251 255 255 252 254 258 260 267 270 263 265 275
202 206 207 204 195 184 185 184 180 183 187 187 189 193 194 194 196 199 198 195 192 191 193 194 194 196 198 198 197 193 189 188 190 190 183 179 183 187 192 199 206 212 212 209 209 209 206 204 204 203 202 200 198 197 201 212 226 228 223 222 228 234 236 234 235 238 240 242 244 249 254 254 252 256 261 265 266 267 269 273 280 282 278 281 281
209 209 205 201 196 187 186 184 181 184 187 189 190 193 195 194 195 199 198 191 187 191 195 193 192 193 194 196 198 196 191 187 188 186 181 180 185 189 195 203 209 213 211 210 212 213 210 209 208 208 207 203 200 198 199 208 224 230 226 221 226 233 238 237 235 237 239 242 246 249 253 253 254 260 266 271 275 276 277 278 280 281 283 285 282
209 203 205 202 197 191 187 184 185 186 188 190 191 193 195 194 194 198 197 189 187 192 194 190 189 192 194 196 198 197 191 185 183 182 181 186 190 194 201 208 211 213 212 213 216 217 215 213 211 209 208 206 202 198 197 204 218 227 226 222 222 227 233 237 237 239 240 244 248 251 254 258 259 262 267 273 277 274 272 274 273 274 280 283 282
212 201 200 203 201 195 188 186 188 188 187 189 191 192 193 194 194 197 196 192 190 191 190 188 189 191 193 193 194 194 188 181 179 180 186 193 197 201 208 212 212 213 213 215 218 218 216 213 209 206 204 202 198 195 196 203 214 223 225 223 220 221 227 232 237 242 243 246 252 254 257 260 261 263 267 272 276 273 271 274 274 276 280 279 278
210 206 194 198 205 201 190 185 186 186 185 186 188 190 193 194 194 194 195 194 190 185 184 187 190 192 192 189 185 184 181 179 181 186 191 197 200 204 209 212 213 213 212 213 212 212 213 209 204 200 196 196 196 195 197 203 212 221 224 223 221 222 224 228 233 239 244 249 252 253 258 263 266 270 273 274 276 277 275 274 273 276 277 275 275
219 215 195 191 200 203 193 186 185 184 184 185 188 190 192 193 192 191 193 193 187 183 183 185 188 189 184 177 174 173 175 182 188 191 194 198 201 204 208 212 215 213 210 209 207 206 205 199 196 194 190 191 195 195 198 204 211 219 222 222 223 225 226 228 230 235 244 250 252 255 264 268 268 272 274 272 272 272 272 271 271 272 272 271 273
221 201 200 194 195 200 197 192 189 186 185 185 187 188 189 191 190 189 190 189 186 187 184 180 178 173 165 165 169 172 177 186 193 196 199 202 203 203 208 212 213 211 210 209 207 209 207 195 189 192 192 194 197 197 200 204 212 220 224 226 228 230 229 229 228 230 239 246 249 253 258 259 265 272 270 264 263 261 261 267 270 269 268 266 265
203 187 207 201 195 200 201 198 193 189 187 185 185 186 187 188 187 186 187 186 185 187 180 171 167 164 161 166 173 179 187 193 197 200 202 202 203 205 209 212 210 207 208 207 207 210 207 193 187 192 196 200 202 200 201 205 213 223 228 228 229 232 233 232 230 232 237 243 247 249 250 250 256 264 261 255 253 254 260 267 268 267 269 268 264
208 207 221 206 199 202 200 199 197 192 189 186 184 183 182 182 181 181 183 182 180 179 170 161 160 162 165 172 176 183 192 196 196 198 200 202 205 209 212 214 208 202 201 197 196 196 190 184 187 193 198 205 209 207 205 209 216 224 228 229 228 232 237 236 234 233 235 240 244 246 250 251 245 242 248 253 249 249 260 268 270 273 274 273 271
204 210 216 205 201 201 196 196 197 192 188 184 182 180 178 178 177 176 177 175 173 173 164 155 159 166 170 175 179 184 190 192 191 195 199 203 207 211 215 216 215 212 204 193 188 184 182 185 190 195 202 210 216 214 210 211 218 224 227 227 226 229 236 238 239 240 238 239 244 245 250 260 258 246 251 261 258 251 258 271 282 284 279 275 273
205 202 204 200 201 201 194 191 191 189 185 182 182 180 177 176 175 172 172 170 171 174 167 157 161 168 169 172 179 183 184 186 188 193 201 206 208 209 212 213 213 212 203 193 189 190 192 193 193 197 203 210 218 219 215 213 218 222 223 224 224 223 227 234 239 241 237 229 229 238 252 270 273 262 261 269 267 257 258 271 279 276 270 268 267
211 204 203 198 198 198 190 184 184 184 183 182 180 177 173 170 169 167 167 168 171 173 168 163 166 170 171 174 179 182 181 181 186 193 200 205 205 204 204 204 204 204 202 196 195 198 198 196 196 200 205 212 222 223 218 215 219 222 221 220 219 218 224 228 225 225 230 231 236 247 258 264 260 257 263 270 268 263 266 270 270 267 264 264 267
208 202 198 189 191 192 185 182 183 182 180 178 176 171 166 164 165 164 163 165 168 170 170 170 171 171 172 176 180 184 183 182 186 193 197 201 202 202 202 201 201 205 209 208 204 204 202 200 206 214 216 218 222 221 215 214 219 223 221 217 216 220 227 228 221 223 233 237 239 245 244 240 245 255 262 262 259 262 266 264 260 260 262 266 272
206 200 190 181 185 185 179 178 178 176 175 174 172 169 165 162 161 161 160 162 165 167 169 171 170 167 169 173 178 183 184 182 185 191 194 196 198 199 201 200 202 209 216 217 214 212 210 208 217 227 225 221 222 220 215 217 223 224 221 216 215 220 222 221 221 227 232 229 225 231 238 241 248 252 251 249 252 257 257 255 256 261 267 273 280
207 197 182 174 177 177 175 176 174 171 172 171 169 166 162 158 156 156 158 160 158 156 159 163 164 164 169 174 176 179 181 180 181 184 186 188 190 192 193 191 193 201 206 210 211 211 215 218 220 222 220 219 221 217 212 216 223 224 221 215 210 212 218 222 223 220 217 213 208 216 240 250 243 240 242 246 251 252 250 252 257 265 272 279 286
199 181 167 163 167 173 178 179 172 166 165 163 160 157 156 154 152 152 153 152 148 148 152 157 160 163 169 173 175 177 177 173 172 176 181 184 184 184 184 182 184 189 190 197 206 209 215 220 219 216 216 219 221 218 213 215 220 222 220 216 212 215 222 223 217 206 205 209 201 202 227 244 235 232 240 244 246 251 255 256 256 261 267 274 282
173 157 155 157 162 169 171 166 159 155 154 153 151 149 148 148 146 145 145 145 145 147 150 154 157 161 166 171 173 175 174 169 169 175 179 181 182 182 180 178 179 179 177 184 203 211 211 212 213 216 216 211 211 214 210 208 213 221 222 217 214 217 219 211 206 214 221 223 213 205 217 231 232 231 237 243 247 253 255 252 249 253 262 271 280
146 149 157 158 156 155 153 149 148 150 150 146 140 135 135 140 140 140 142 142 143 145 146 147 151 154 161 168 172 173 171 169 172 174 175 179 181 177 173 172 169 165 165 175 195 209 211 210 209 210 206 194 191 204 211 211 215 221 223 217 212 214 220 221 223 224 217 212 207 204 211 221 229 236 239 242 246 248 247 250 253 259 270 281 289
153 152 149 147 143 138 140 142 143 145 143 136 130 129 134 138 137 136 138 139 140 142 141 142 146 152 159 164 166 168 169 169 172 172 172 175 175 166 164 168 166 162 168 179 189 201 210 212 206 202 204 199 191 200 218 224 223 218 215 210 209 216 228 230 219 213 205 198 195 202 213 222 229 236 236 236 241 246 248 258 272 284 291 292 291
138 127 120 120 119 117 118 120 121 123 126 128 132 133 129 127 127 130 134 136 139 141 142 144 149 155 161 162 162 166 170 169 170 169 168 169 168 163 163 168 167 169 178 185 190 197 204 208 205 202 204 201 193 194 211 221 218 208 204 204 207 220 233 221 207 209 210 202 199 205 217 226 227 225 227 231 243 257 266 278 293 303 303 292 278
118 113 109 108 105 101 99 97 99 104 110 119 127 128 125 125 128 131 135 137 138 137 141 149 154 159 164 165 164 166 167 165 167 169 166 167 171 171 167 167 173 182 188 191 194 195 196 198 204 207 202 193 188 186 192 201 201 197 198 203 210 225 225 207 198 201 199 193 196 204 212 219 218 216 226 237 245 257 268 278 290 298 291 273 268
102 103 104 104 101 98 97 97 100 106 111 115 121 125 129 133 134 136 139 140 139 139 146 157 160 162 163 162 161 162 159 157 164 173 177 178 180 177 171 173 185 191 191 193 195 195 197 200 205 209 203 193 189 187 183 183 186 191 201 207 211 212 203 192 190 194 195 195 200 204 207 213 214 220 235 237 232 236 245 257 270 268 257 259 276
87 89 95 100 100 99 98 97 98 104 112 117 119 126 133 136 138 141 142 142 143 146 153 160 161 160 159 157 158 158 156 160 172 181 182 181 182 185 182 183 192 195 190 193 198 201 205 208 209 212 208 198 194 198 196 187 181 182 189 195 194 189 187 191 193 189 185 188 192 192 192 198 209 224 235 234 231 229 227 229 237 239 248 273 290
82 82 85 90 96 100 101 101 101 104 111 113 117 127 137 139 142 145 145 146 148 150 153 156 158 158 157 157 160 160 161 169 175 173 164 163 172 187 186 178 184 191 188 192 203 207 211 218 222 218 207 196 193 199 200 193 188 186 183 182 183 183 189 199 198 178 168 174 183 185 191 203 214 229 241 242 238 229 225 231 244 252 268 286 292
81 83 82 83 87 92 94 97 100 104 110 115 121 132 138 140 145 151 151 151 152 153 152 153 157 159 158 158 161 163 167 173 172 158 140 143 152 162 162 159 168 184 187 191 201 203 204 215 198 159 173 186 197 204 202 197 198 200 190 181 185 192 194 194 187 177 181 203 214 219 235 240 240 249 259 261 259 255 261 275 283 287 292 291 289
79 80 80 79 81 83 85 89 93 98 103 109 116 124 129 131 136 142 145 148 153 154 152 153 158 159 158 160 162 163 167 173 174 170 162 154 148 146 147 151 162 175 184 197 213 217 203 156 99 112 152 172 181 193 200 200 200 199 190 185 190 194 189 185 184 186 208 240 251 256 262 261 257 264 274 282 284 284 289 289 284 287 294 296 295
Height
756 760 764 767 771 774 777 780 783 786 788 791 794 796 798 800 802 803 806 808 810 811 813 814 816 818 819 820 821 822 823 824 825 826 826 827 828 829 830 831 832 833 834 834 835 836 836 837 838 838 837 838 839 840 841 842 842 843 842 842 842 841 841 840 840 841 840 840 840 839 838 839 840 841 841 841 840 840 840 841 841 841 841 841 841
752 757 760 764 768 771 774 777 779 782 785 788 790 793 796 797 799 801 803 805 807 808 810 812 813 815 816 818 819 820 821 822 823 824 825 826 827 828 828 830 831 831 832 833 834 834 834 835 836 836 836 837 838 839 841 841 842 842 842 842 841 841 840 840 840 840 839 838 838 838 837 837 839 839 839 840 840 840 840 840 841 842 843 842 842
750 754 757 761 764 767 771 773 776 778 781 785 787 790 793 794 796 798 800 802 804 806 808 810 811 813 815 816 817 819 819 820 822 822 824 825 826 826 827 828 829 830 831 832 832 833 833 834 834 835 836 837 838 839 840 840 841 842 842 842 841 840 840 839 840 839 838 837 838 840 838 836 839 840 839 840 840 840 841 841 842 842 844 844 843
749 751 753 756 760 763 767 769 772 775 778 780 783 786 788 791 793 795 797 799 801 804 806 808 810 811 813 815 816 817 818 819 820 821 822 823 824 825 825 826 827 828 829 830 831 832 832 833 834 835 837 838 838 839 839 839 840 841 841 841 841 840 838 838 839 839 838 838 838 839 837 836 841 841 839 840 841 841 841 842 842 843 844 845 845
745 747 749 752 755 758 762 766 768 771 773 776 779 782 784 787 790 792 794 797 799 801 804 806 808 810 812 813 815 816 817 818 819 820 821 822 823 823 824 825 825 826 828 829 830 831 831 832 834 835 836 838 838 838 839 839 840 840 840 841 841 841 839 838 839 839 839 839 838 838 839 841 843 841 839 841 841 840 841 842 842 842 844 846 846
739 741 745 748 751 754 758 762 764 766 769 772 775 778 781 784 787 789 791 794 797 799 801 804 806 808 810 811 813 814 815 816 816 818 819 820 821 822 823 823 824 825 827 828 829 830 831 832 834 835 836 837 838 839 839 839 840 840 840 841 841 841 840 839 838 838 839 840 839 839 841 842 841 839 840 842 841 839 839 841 842 842 843 844 845
733 736 739 742 746 750 753 756 760 762 765 769 772 775 778 781 784 786 789 791 794 796 799 801 803 805 807 809 810 812 813 813 815 816 817 818 819 821 822 822 823 825 826 828 828 829 831 832 834 835 836 837 838 839 839 839 839 840 840 841 841 841 841 840 838 838 838 839 839 839 840 840 840 839 839 841 842 840 839 840 840 841 843 843 844
729 732 734 736 740 744 748 752 755 759 762 765 768 771 774 778 781 783 786 788 791 794 796 798 800 803 805 807 808 810 811 811 813 814 815 817 818 820 821 822 823 824 826 827 827 829 830 832 833 834 835 836 837 838 838 838 839 840 840 841 841 841 841 841 840 838 838 838 840 840 840 840 840 839 839 840 841 841 839 838 838 840 841 842 843
724 727 730 731 735 739 743 748 752 755 759 762 765 768 771 774 777 780 783 786 788 791 793 795 798 800 803 805 806 808 809 810 811 812 814 815 817 819 820 821 823 824 825 826 827 829 830 831 832 834 835 836 837 837 837 838 838 839 840 840 840 841 841 841 841 840 839 838 840 840 840 840 839 839 840 840 839 841 840 837 837 838 839 841 843
721 720 724 727 729 735 740 744 748 752 755 758 761 764 768 771 774 777 780 783 785 788 790 793 795 798 800 802 804 806 807 808 810 811 813 814 816 818 819 821 822 823 824 825 827 828 830 831 832 833 834 835 836 836 836 837 838 839 839 839 839 840 841 841 841 841 840 840 840 841 840 839 839 839 839 839 839 840 840 837 836 836 837 839 840
722 716 718 722 726 731 736 740 744 748 751 755 758 761 764 767 770 774 776 779 782 785 787 790 792 795 797 800 802 804 805 807 808 809 811 813 815 816 818 819 820 822 823 824 826 827 829 830 831 832 833 834 835 836 836 836 837 838 838 839 839 839 840 840 840 840 840 840 840 840 840 838 838 839 838 839 839 839 839 837 836 835 837 838 838
722 718 716 719 723 726 730 735 739 744 748 750 753 757 760 763 766 770 773 776 779 782 784 787 790 792 794 797 799 802 804 805 807 808 810 812 814 815 816 818 819 821 822 823 825 827 828 830 831 832 833 834 834 834 835 835 836 837 838 839 839 839 840 840 840 840 840 840 839 839 839 838 838 839 839 839 839 839 840 839 837 836 837 837 838
716 719 717 716 719 721 724 729 734 739 742 746 749 752 755 759 762 766 769 772 775 778 781 784 786 789 792 794 797 800 802 803 805 807 809 811 812 814 815 817 819 820 822 823 824 826 828 830 831 832 833 833 833 834 834 835 836 836 837 838 839 839 840 839 840 840 839 839 839 838 838 838 838 838 839 839 839 840 840 840 838 837 837 837 837
707 713 717 714 713 715 718 723 728 733 737 741 744 747 751 755 758 762 765 769 772 775 778 781 783 786 789 792 795 797 800 802 804 806 808 809 811 813 814 816 818 820 821 823 824 826 827 829 830 831 832 833 833 834 834 835 836 836 837 837 838 838 838 839 839 838 838 838 838 838 838 838 837 837 838 839 838 838 838 838 838 838 838 836 835
701 707 713 710 706 709 712 717 722 727 731 736 739 743 747 750 754 758 761 765 768 771 774 777 780 783 786 789 792 795 797 800 802 804 806 808 809 812 814 816 818 820 822 823 825 826 827 829 830 831 832 832 833 833 834 834 835 835 836 836 836 837 837 837 838 837 838 837 837 838 838 838 837 837 837 837 838 838 837 838 838 839 839 837 835
694 699 704 703 702 704 707 711 716 721 726 730 734 738 742 746 750 753 758 761 764 768 771 774 777 780 783 786 789 792 795 797 800 802 804 806 809 811 814 816 818 820 821 823 824 826 827 828 829 830 831 831 832 832 833 833 833 834 834 835 835 835 835 836 836 837 837 836 836 837 837 837 837 836 837 837 837 837 837 838 838 838 839 839 836
687 691 695 697 698 700 702 706 710 715 720 723 728 733 737 741 745 749 754 758 761 764 768 771 774 777 780 784 787 789 792 794 797 799 802 805 808 811 813 816 818 819 821 822 824 825 826 827 828 829 829 830 831 831 832 832 832 832 832 833 833 833 834 834 835 836 836 835 835 835 835 836 836 835 836 836 836 836 836 836 837 837 838 838 837
684 686 689 692 694 696 697 701 704 708 713 718 723 728 733 737 741 745 749 753 757 761 764 767 770 774 778 781 784 786 789 792 794 797 801 804 807 810 813 815 816 818 819 821 822 824 825 826 827 828 828 829 829 830 831 831 831 831 831 831 831 831 832 832 833 835 835 835 835 834 834 834 834 834 834 834 834 834 834 835 836 836 836 836 836
681 683 686 687 688 691 693 696 700 705 710 715 720 725 729 733 737 741 745 749 754 757 760 764 767 771 775 777 780 783 786 789 792 796 799 803 806 808 811 813 814 816 817 819 820 821 823 823 824 825 826 826 827 827 828 829 830 830 830 830 830 830 830 831 832 832 833 834 834 834 834 833 833 833 832 833 832 833 833 833 834 833 833 833 832
681 681 682 682 683 684 687 691 694 700 707 711 716 720 724 729 733 737 742 746 750 754 757 761 764 768 771 774 777 780 783 787 790 794 798 801 804 807 809 811 811 813 814 815 816 816 817 817 818 820 821 822 823 823 824 825 827 828 829 829 829 829 829 829 830 830 831 832 832 832 832 832 832 831 831 832 832 832 832 832 832 832 831 831 830
683 682 679 676 677 678 681 688 691 696 703 706 710 715 719 724 728 732 737 741 746 750 754 758 761 764 768 770 774 777 781 785 788 793 796 799 801 804 806 807 807 809 809 808 807 806 806 808 810 812 814 816 818 819 820 822 824 826 827 828 828 828 828 828 828 829 829 830 830 830 830 830 830 830 830 830 830 830 830 830 830 830 829 829 829
678 681 677 670 671 674 677 684 689 692 697 700 704 709 713 718 722 727 732 736 741 747 751 754 757 761 764 767 771 774 778 782 786 790 793 795 797 799 800 801 802 802 800 798 796 795 797 799 802 804 807 811 814 816 818 819 821 823 825 826 827 827 827 827 827 827 828 828 828 828 828 828 828 828 828 829 829 829 828 827 828 828 828 827 828
668 677 677 667 665 669 672 679 685 688 692 696 700 703 708 712 717 722 726 731 737 743 747 751 755 758 761 764 768 771 775 778 781 784 787 789 791 792 793 794 794 793 790 787 787 789 792 794 797 800 802 807 811 814 816 817 818 821 822 823 824 825 825 825 825 825 825 826 826 826 826 826 826 826 826 826 827 827 826 826 826 826 826 826 827
660 670 672 664 662 666 670 674 679 682 687 692 695 698 703 707 712 716 720 726 733 738 743 748 752 756 760 762 765 767 770 773 775 777 779 781 782 783 784 785 785 783 779 779 781 785 787 790 793 796 799 803 808 811 813 815 816 818 819 820 821 822 822 822 822 822 823 823 824 824 824 824 824 824 824 824 824 825 825 825 825 825 825 825 825
657 663 664 661 661 664 667 669 673 677 682 687 691 695 698 702 707 710 715 721 727 732 737 742 746 752 756 759 761 763 765 767 769 771 773 775 775 776 777 777 775 773 772 774 778 781 784 787 790 793 796 799 803 807 810 813 815 816 816 817 819 820 820 820 820 820 821 821 821 822 822 822 822 822 822 822 822 823 823 823 824 824 824 824 823
657 658 660 660 659 662 664 665 669 673 678 683 688 692 694 698 702 705 710 716 721 726 730 735 740 745 750 754 757 758 758 760 763 765 768 770 770 770 771 769 767 767 769 772 776 779 781 784 787 791 794 797 801 803 806 810 814 815 815 815 816 818 818 818 818 818 819 819 819 820 821 821 821 821 821 821 821 821 821 822 822 823 822 822 821
655 656 659 660 660 661 662 663 666 669 674 679 683 688 691 694 698 701 706 711 716 721 725 730 735 739 743 746 750 752 752 754 757 760 762 763 764 764 763 762 762 764 767 770 773 776 779 781 785 788 791 794 798 800 802 807 811 813 813 812 813 815 816 816 815 816 817 817 818 818 819 819 819 819 820 820 820 820 819 820 820 821 821 820 820
655 657 659 659 660 660 660 662 664 666 671 675 679 684 687 690 694 698 701 706 711 716 720 726 731 735 737 739 743 746 748 749 753 755 756 757 757 758 757 757 759 762 764 766 768 772 775 778 782 786 789 792 794 796 799 803 807 810 811 810 810 812 813 814 814 814 814 815 816 816 817 817 818 818 818 818 818 818 817 817 819 820 820 819 818
661 659 658 659 659 658 658 660 661 664 668 672 676 681 684 687 691 694 697 701 705 710 716 722 726 729 732 735 738 743 746 747 748 749 750 750 751 753 754 755 757 758 760 761 764 768 773 776 779 783 787 790 792 794 796 800 804 807 808 808 808 809 810 811 812 812 813 813 814 814 815 815 815 815 816 816 816 816 816 816 817 818 818 817 816
659 656 655 656 657 657 656 658 660 662 665 669 673 676 680 683 686 690 694 697 701 706 712 718 721 724 728 732 736 740 743 743 744 743 744 745 747 750 752 752 753 754 756 758 761 766 771 773 776 780 784 787 789 791 793 797 801 804 806 806 806 807 807 808 809 810 811 812 812 812 813 813 813 813 814 814 814 814 814 814 815 815 815 814 813
646 648 650 652 655 656 657 657 658 659 662 665 669 672 676 679 682 687 691 694 698 704 709 713 716 720 725 729 733 736 738 739 740 740 740 742 745 747 748 750 750 751 754 757 759 764 769 771 773 776 780 783 786 788 790 794 798 801 803 804 805 805 806 806 806 807 808 810 810 811 811 811 811 811 812 811 811 811 811 811 812 812 812 812 811
639 643 647 650 652 655 656 654 654 655 658 662 666 669 673 675 679 683 687 691 695 699 705 709 713 717 722 725 729 732 733 735 736 737 739 740 743 745 747 748 749 750 754 756 758 761 766 769 772 774 778 780 783 785 787 791 795 798 800 801 803 804 804 804 804 804 805 807 808 808 809 809 809 808 809 808 808 808 808 808 808 808 808 808 807
637 641 643 646 648 650 651 651 651 653 655 658 662 665 669 672 676 680 683 687 691 695 701 706 710 715 718 722 726 729 731 732 733 735 737 739 742 744 745 747 749 752 754 756 758 761 764 768 771 773 776 778 781 782 784 788 791 794 796 798 800 801 801 801 801 801 803 804 805 805 806 806 806 806 806 806 806 806 805 805 805 804 804 804 804
635 637 639 642 643 644 646 648 649 651 653 656 659 662 666 669 673 677 680 684 688 692 698 704 708 711 715 719 723 725 728 730 731 734 737 739 742 743 744 747 749 752 754 755 758 761 763 766 769 771 774 777 779 780 782 785 788 790 792 794 796 798 799 799 799 799 800 802 803 803 803 803 804 804 804 804 804 804 803 802 802 801 800 800 800
633 634 637 640 640 640 641 643 646 649 651 654 657 660 663 666 669 674 677 681 685 690 695 701 705 709 713 717 720 723 726 728 731 734 737 739 742 743 745 747 749 751 753 755 758 760 762 764 767 769 773 775 777 778 780 782 785 787 789 792 794 795 796 797 797 797 798 800 801 801 801 802 803 803 803 802 802 802 801 800 800 799 799 798 798
628 630 633 634 635 635 635 637 641 644 648 650 653 656 659 662 666 670 674 678 683 687 692 698 702 707 711 714 717 721 723 726 729 732 735 738 740 742 744 746 749 751 753 754 757 759 761 763 765 767 771 773 775 776 777 779 782 784 787 789 791 792 793 794 794 795 796 797 798 798 799 800 801 802 802 801 800 799 798 797 797 797 798 796 795
621 624 626 628 630 631 632 635 637 640 644 647 650 652 655 658 663 668 672 676 680 684 690 695 700 704 708 712 716 719 721 724 726 729 732 735 737 739 742 745 747 750 752 754 756 757 759 761 763 765 767 769 771 772 774 776 779 782 784 786 787 788 790 791 792 792 793 794 794 795 795 795 797 799 800 799 798 797 795 794 795 795 795 794 793
616 619 621 624 628 629 630 634 635 637 641 644 647 650 653 657 661 666 670 675 679 683 688 693 697 702 706 710 714 717 719 721 724 726 729 731 734 736 739 741 744 747 749 752 754 756 758 759 762 764 765 767 768 769 771 774 777 779 782 783 785 786 787 789 789 790 790 791 792 792 791 792 794 796 797 797 796 795 793 793 793 793 793 792 790
612 615 618 622 626 628 630 632 633 637 641 644 647 650 652 656 660 665 669 673 678 683 687 691 696 700 705 709 712 715 717 719 722 725 728 730 733 735 737 739 741 744 747 750 752 754 756 758 761 763 764 765 766 767 769 772 775 777 779 781 783 784 785 787 788 789 789 789 790 790 790 791 793 794 795 795 794 793 792 792 792 792 791 789 788
609 611 616 621 625 627 630 631 632 635 639 643 647 650 654 657 660 664 668 672 678 683 687 692 696 700 704 708 710 713 716 718 722 725 728 731 733 735 737 738 739 742 745 748 751 753 755 756 759 761 762 763 765 765 767 770 773 775 777 779 780 782 783 785 786 787 787 787 787 787 787 789 791 792 793 793 792 791 790 791 791 790 789 787 786
609 612 616 621 625 628 630 631 632 634 637 641 646 650 655 659 660 664 668 672 678 683 688 693 697 700 704 707 709 713 715 718 721 725 728 731 732 734 735 736 737 739 742 746 749 751 753 755 757 759 760 761 763 764 765 768 771 773 774 776 778 779 780 782 783 784 784 784 785 785 785 786 789 790 791 791 790 789 789 789 790 789 787 786 785
611 615 618 622 625 627 630 632 633 635 638 643 647 652 657 660 662 664 668 673 678 684 688 693 696 700 703 706 709 712 715 717 720 724 727 729 731 733 734 734 735 737 740 744 748 749 751 753 755 757 758 759 760 762 764 766 769 770 772 773 775 777 778 779 780 781 782 782 783 783 783 785 787 788 789 788 788 788 788 788 788 787 786 785 784
615 618 620 621 623 626 630 633 635 638 641 645 649 654 658 662 664 667 670 674 679 684 689 693 697 701 705 707 710 713 715 717 719 722 726 729 731 734 734 735 736 737 740 744 747 749 750 752 754 756 757 758 759 760 762 765 766 768 769 770 773 775 775 776 778 779 780 781 781 781 781 783 785 786 786 787 787 787 787 787 786 786 785 784 782
616 618 618 620 624 628 632 636 638 640 643 646 650 655 660 663 667 670 673 677 680 684 689 693 697 702 707 710 713 715 717 719 721 723 727 731 733 734 735 736 737 738 740 743 746 749 750 751 752 753 754 756 758 759 761 762 763 765 767 769 771 773 773 775 776 777 778 779 779 779 779 781 783 784 785 785 786 786 786 785 785 784 783 782 781
617 620 622 626 629 632 635 637 640 642 645 648 652 657 661 665 669 672 676 679 683 686 688 691 696 701 705 709 712 714 716 718 721 725 728 732 734 734 735 737 737 738 740 743 745 748 749 749 750 751 752 754 757 758 759 761 762 764 766 768 770 771 772 774 775 776 776 776 776 777 778 780 782 783 783 784 784 784 784 784 783 783 782 781 780
622 625 627 629 631 634 636 639 643 646 648 652 655 658 662 666 670 673 677 680 684 688 691 695 699 702 705 707 709 712 714 716 719 724 727 731 733 734 735 736 737 738 740 742 744 745 746 748 749 749 750 752 754 757 759 760 761 764 765 766 768 769 770 772 774 774 774 774 775 776 778 779 780 781 781 782 781 781 782 782 781 781 780 779 779
629 629 631 633 634 637 640 643 647 650 652 656 659 662 665 668 670 673 676 679 682 687 693 699 702 704 706 708 709 711 713 715 719 723 727 730 732 733 734 735 736 737 738 740 742 743 744 745 746 747 748 750 752 755 757 758 760 762 763 764 766 767 769 771 772 773 773 773 774 776 777 778 779 779 779 779 779 779 779 778 778 777 777 777 776
635 635 637 639 640 643 647 650 652 654 657 660 663 666 668 670 672 674 676 678 681 686 692 697 701 704 707 709 710 711 712 715 719 723 726 728 731 732 732 734 735 735 736 738 740 741 742 743 744 745 746 748 751 754 755 756 758 759 761 762 764 766 768 769 771 771 771 772 774 774 775 776 777 777 777 776 777 777 776 775 775 775 775 774 774
641 642 644 645 647 650 653 655 658 660 661 663 666 669 671 673 675 678 678 680 683 687 691 696 699 703 707 710 711 711 713 716 720 722 724 726 728 730 730 732 733 734 735 737 739 740 741 742 742 743 744 747 750 752 753 755 756 757 759 760 762 764 766 767 768 769 770 771 772 772 773 774 774 774 774 774 774 773 773 772 773 772 772 773 772
645 647 649 650 653 655 656 658 661 662 664 665 668 670 672 673 676 679 681 683 685 688 691 695 699 702 706 709 710 712 714 717 720 722 724 726 728 729 730 731 733 734 736 737 738 740 741 742 742 742 743 746 749 750 752 753 755 756 758 759 761 763 764 764 766 767 768 769 769 769 770 770 771 771 770 769 769 769 769 770 771 771 771 770 770
650 651 652 655 657 658 659 660 662 663 665 666 668 670 672 674 676 679 682 684 687 689 692 696 699 702 706 708 710 712 715 718 720 722 725 726 728 730 731 732 733 735 736 738 739 740 742 743 743 743 744 746 748 749 750 752 753 755 757 758 760 761 762 763 765 766 767 767 767 767 767 767 768 767 766 766 766 766 767 768 768 768 769 768 768